Lid_Strength_Index
4 3 3 3 3 3 3 3 2 1 1 1 1 1 1 1 0 1 0 1 1 1 2 3 4 4 5 6 5 -0 -1 1 3 4 5 5 6 7 8 7 6 8 8 7 6 7 7
4 4 4 3 3 3 3 2 2 2 1 1 1 1 1 1 1 1 1 1 1 2 2 3 4 5 6 8 1 -0 1 1 3 4 4 3 5 4 6 7 8 7 7 7 7 7 7
4 3 3 2 2 2 2 2 1 1 1 1 1 1 1 1 1 1 2 1 2 2 3 4 5 5 7 6 1 0 0 2 2 2 4 3 3 4 5 7 5 6 8 7 7 8 8
4 4 4 3 2 2 2 1 1 1 1 1 1 1 2 2 2 2 2 2 2 3 4 5 6 6 8 2 1 2 1 2 1 2 3 2 3 4 6 5 7 8 8 11 7 6 6
3 3 2 2 2 2 1 1 1 1 1 1 1 2 2 2 2 2 2 2 3 3 4 5 6 6 8 2 3 2 2 3 2 2 3 3 4 6 6 9 10 9 12 11 9 6 6
3 3 3 2 2 2 1 1 2 2 2 2 2 2 2 2 2 2 2 3 4 5 5 5 4 7 5 7 4 3 3 2 4 4 5 6 6 8 9 10 15 12 11 10 11 8 7
3 3 3 3 2 2 2 3 3 3 3 2 2 2 2 1 2 3 4 6 7 8 8 6 6 7 5 3 3 4 3 4 4 5 8 7 10 11 10 8 8 9 10 11 9 7 8
3 3 3 3 3 3 3 3 3 3 2 2 2 2 2 2 2 4 3 6 5 3 7 6 5 5 4 3 6 5 2 6 7 9 7 9 11 8 7 8 8 9 11 12 9 8 8
3 3 3 3 3 3 3 3 2 2 2 2 2 2 2 2 3 4 4 4 3 1 7 7 5 5 4 4 6 5 3 5 7 9 8 10 9 6 7 8 10 10 11 11 12 9 8
2 2 3 3 3 2 3 3 3 3 3 3 2 2 2 2 5 4 5 4 1 0 11 10 7 5 4 4 6 3 2 4 6 9 8 9 6 7 8 9 9 12 8 9 11 12 17
2 2 2 2 2 2 3 2 3 3 3 2 2 1 2 2 4 5 5 3 1 3 18 9 8 4 5 6 5 5 2 4 8 8 8 10 9 9 10 9 8 10 9 10 12 13 13
2 2 2 2 2 3 3 3 3 4 3 2 1 1 2 4 2 4 3 2 3 13 18 9 7 7 7 6 6 5 5 4 5 8 8 9 7 8 9 8 8 8 11 11 11 13 19
2 2 2 2 2 2 3 3 4 4 3 1 1 1 2 2 5 3 3 4 14 17 9 10 8 8 8 8 8 7 7 8 11 14 14 10 10 8 7 10 8 9 14 18 20 20 19
1 1 1 1 1 2 2 3 3 3 3 3 3 4 5 4 3 3 4 10 17 10 10 7 7 7 9 7 8 8 9 10 8 9 12 14 15 10 8 9 11 11 13 17 22 21 17
0 0 1 0 0 0 1 1 2 2 2 2 3 5 5 4 3 3 8 15 14 10 7 8 8 10 9 8 8 8 9 9 8 8 14 13 13 8 8 7 8 12 15 11 15 15 19
1 1 1 0 0 0 0 1 1 1 1 2 4 6 7 4 3 5 10 13 11 7 8 8 12 10 12 10 10 11 10 8 9 8 7 11 14 9 8 7 8 10 9 17 16 21 22
1 1 1 0 0 0 0 0 0 1 1 1 3 7 5 3 4 9 13 12 9 6 6 9 10 10 10 11 10 12 12 8 7 8 7 9 10 12 9 10 11 10 11 13 14 14 19
1 1 1 1 0 0 1 0 -0 -0 1 3 4 9 4 3 11 10 11 9 7 8 6 8 8 8 9 9 10 10 12 10 6 7 11 8 10 14 12 8 8 8 10 12 18 18 16
1 1 1 0 0 -0 1 1 -0 -0 -0 2 6 7 4 4 12 11 8 8 7 8 8 8 9 8 7 9 12 10 10 8 8 8 9 8 12 15 15 11 9 10 9 9 10 11 14
1 1 1 0 0 -1 -1 -0 -0 -0 -0 2 6 10 8 8 8 9 10 10 10 7 7 7 8 7 8 10 9 11 11 9 8 8 9 8 10 12 16 14 10 12 11 10 11 15 14
1 1 1 0 -0 -1 -1 -1 -0 -1 -1 2 6 9 6 11 11 9 8 8 10 10 7 6 8 8 9 11 11 11 10 10 9 10 9 9 13 11 10 11 11 11 12 11 12 12 14
0 0 0 -0 -1 -1 -1 1 1 -1 -1 4 8 8 6 7 7 9 9 10 9 8 8 9 9 8 8 10 10 11 10 10 11 10 10 9 13 11 13 11 12 13 12 12 12 12 12
0 0 0 -0 -1 -1 -0 0 1 -1 1 5 3 3 6 7 9 9 9 9 9 7 7 7 7 8 9 8 7 7 7 8 9 10 10 11 11 13 16 12 13 16 13 12 11 10 10
-0 0 -0 -0 -1 -1 0 1 0 -1 0 1 2 3 7 10 8 9 8 7 8 8 9 7 6 8 7 5 6 7 7 8 8 8 8 11 12 13 15 15 19 12 9 9 10 10 9
-1 -0 -1 -1 -1 1 1 0 -0 -1 -0 1 1 4 7 10 8 7 7 8 7 7 8 8 7 6 5 7 10 12 12 12 11 10 10 10 11 14 16 15 12 11 10 11 12 12 10
-0 -0 -0 -0 0 1 1 1 -0 -1 -1 2 2 1 4 9 9 6 7 7 10 10 8 8 6 5 5 8 10 14 16 14 14 12 10 10 10 11 13 16 17 13 9 7 8 14 10
-0 0 0 1 1 1 0 -0 -0 -0 0 2 2 0 3 8 6 6 8 9 6 7 8 8 7 7 6 9 12 13 14 11 14 14 14 13 11 13 13 14 14 10 8 7 15 15 11
1 1 0 0 -0 -0 -0 0 0 0 0 2 3 1 3 7 5 5 4 6 6 6 9 7 8 8 9 11 12 11 12 11 12 12 11 12 13 13 12 14 17 9 8 12 11 10 12
2 0 0 0 0 1 1 0 0 1 1 1 4 1 1 5 5 3 3 3 4 4 5 6 7 8 7 9 9 10 11 10 11 14 9 14 12 13 13 13 11 9 10 9 9 11 12